(239828) = 1998 VW42

Discovered at Kitt Peak on 1998-11-15 by Spacewatch.

Orbit

Orbit type: Main Belt

Note: WebGL enabled browser required.

epoch2023-02-25.0
epoch JD2460000.5
perihelion date2020-11-17.18355
perihelion JD2459170.68355
argument of perihelion (°)282.53558
ascending node (°)52.49779
inclination (°)2.98452
eccentricity0.0245987
perihelion distance (AU)2.6851056
Tisserand w.r.t. Jupiter3.3
ΔV w.r.t. Earth (km/sec)10.2
semimajor axis (AU)2.7528214
mean anomaly (°)179.06835
mean daily motion (°/day)0.21579270
aphelion distance (AU)2.821
period (years)4.57
P-vector [x]0.90550332
P-vector [y]-0.36630386
P-vector [z]-0.21420837
Q-vector [x]0.42232403
Q-vector [y]0.82708715
Q-vector [z]0.37090330
absolute magnitude16.65
phase slope0.15
uncertainty0
referenceMPEC 2023-F215
observations used357
oppositions13
arc length (days)8927
first opposition used1998
last opposition used2023
residual rms (arc-secs)0.74
perturbers coarse indicatorM-v
perturbers precise indicator003Ek
first observation date used1998-10-17.0
last observation date used2023-03-27.0
computer nameMPCLINUX
JD of orbit computation2456760.635687
perihelion JD uncertainty (days)3.9539E-04
argument of perihelion uncertainty (°)1.1067E-04
ascending node uncertainty (°)7.3807E-05
inclination uncertainty (°)4.1593E-06
eccentricity uncertainty 4.1544E-08
perihelion distance uncertainty (AU)1.2117E-07
Minimum Orbit Intersection Distances (in AU)
for orbit epoch: 2460000.5, reference: E2023-FI9
Mercury2.25365
Venus1.9573
Earth1.67509
Mars1.15535
Jupiter2.2466
Saturn6.28305
Uranus15.6244
Neptune27.1397

Observations

355 total observations over interval: 1998 10 17.43873 – 2023 03 27.275439
These data are available for download (format description).

Date (UT) J2000 RA J2000 Dec Magn Location Ref
1998 10 17.43873 02 49 07.75 +14 56 57.7 20.9 V 691 – Steward Observatory, Kitt Peak-Spacewatch MPS 34053
1998 10 17.46442 02 49 06.48 +14 56 53.6 20.6 V 691 – Steward Observatory, Kitt Peak-Spacewatch MPS 34053
1998 10 17.48626 02 49 05.45 +14 56 49.9 20.5 V 691 – Steward Observatory, Kitt Peak-Spacewatch MPS 34053
1998 10 27.42236 02 40 42.28 +14 28 16.8 20.5 V 691 – Steward Observatory, Kitt Peak-Spacewatch MPS 34053
1998 10 27.44413 02 40 41.08 +14 28 12.9 20.5 V 691 – Steward Observatory, Kitt Peak-Spacewatch MPS 34053
1998 10 27.46592 02 40 39.86 +14 28 08.8 20.5 V 691 – Steward Observatory, Kitt Peak-Spacewatch MPS 34053
1998 11 15.15964 02 23 57.79 +13 29 27.3 20.3 V 691 – Steward Observatory, Kitt Peak-Spacewatch MPS 3178
1998 11 15.18174 02 23 56.63 +13 29 23.7 20.3 V 691 – Steward Observatory, Kitt Peak-Spacewatch MPS 3178
1998 11 15.20538 02 23 55.41 +13 29 19.3 20.2 V 691 – Steward Observatory, Kitt Peak-Spacewatch MPS 3178
1998 11 19.20021 02 20 42.91 +13 18 11.3 20.4 V 691 – Steward Observatory, Kitt Peak-Spacewatch MPS 3178
1998 11 19.22161 02 20 41.86 +13 18 08.2 20.4 V 691 – Steward Observatory, Kitt Peak-Spacewatch MPS 3178
1998 11 19.24304 02 20 40.85 +13 18 04.7 20.4 V 691 – Steward Observatory, Kitt Peak-Spacewatch MPS 3178
2007 10 11.20623 01 48 35.09 +08 47 46.7 20.2 V 691 – Steward Observatory, Kitt Peak-Spacewatch MPS 234096
2007 10 11.22386 01 48 34.19 +08 47 42.7 20.4 V 691 – Steward Observatory, Kitt Peak-Spacewatch MPS 234096
2007 10 11.24149 01 48 33.24 +08 47 38.8 20.0 V 691 – Steward Observatory, Kitt Peak-Spacewatch MPS 234096
2007 10 11.30011 01 48 30.22 +08 47 25.5 20.1   704 – Lincoln Laboratory ETS, New Mexico MPS 243486
2007 10 19.17410 01 41 43.28 +08 16 30.4 19.9 V 691 – Steward Observatory, Kitt Peak-Spacewatch MPS 234096
2007 10 19.19177 01 41 42.35 +08 16 26.8 19.9 V 691 – Steward Observatory, Kitt Peak-Spacewatch MPS 234096
2007 10 19.20944 01 41 41.40 +08 16 22.9 20.4 V 691 – Steward Observatory, Kitt Peak-Spacewatch MPS 234096
2007 10 19.34694 01 41 33.97 +08 15 50.2 19.9 V G96 – Mt. Lemmon Survey MPS 234096
2007 10 19.35344 01 41 33.57 +08 15 48.6 19.9 V G96 – Mt. Lemmon Survey MPS 234096
2007 10 19.35992 01 41 33.25 +08 15 47.0 19.9 V G96 – Mt. Lemmon Survey MPS 234096
2007 10 19.36648 01 41 32.89 +08 15 45.4 20.0 V G96 – Mt. Lemmon Survey MPS 234096
2007 11 05.20980 01 27 32.07 +07 15 06.2 19.9 V G96 – Mt. Lemmon Survey MPS 234096
2007 11 05.21539 01 27 31.78 +07 15 05.0 19.7 V G96 – Mt. Lemmon Survey MPS 234096
2007 11 05.22091 01 27 31.53 +07 15 03.9 19.7 V G96 – Mt. Lemmon Survey MPS 234096
2007 11 05.22645 01 27 31.28 +07 15 02.9 20.0 V G96 – Mt. Lemmon Survey MPS 234096
2008 12 29.39490 08 59 07.80 +21 17 17.7 20.8 V G96 – Mt. Lemmon Survey MPS 272164
2008 12 29.40384 08 59 07.51 +21 17 19.8 20.8 V G96 – Mt. Lemmon Survey MPS 272164
2008 12 29.41287 08 59 07.18 +21 17 21.4 20.8 V G96 – Mt. Lemmon Survey MPS 272164
2008 12 29.42191 08 59 06.86 +21 17 23.8 20.9 V G96 – Mt. Lemmon Survey MPS 272164
2009 01 16.18387 08 45 59.58 +22 28 29.2 20.6 V 691 – Steward Observatory, Kitt Peak-Spacewatch MPS 272164
2009 01 16.20202 08 45 58.59 +22 28 34.0 20.3 V 691 – Steward Observatory, Kitt Peak-Spacewatch MPS 272164
2009 01 16.22360 08 45 57.40 +22 28 39.2 20.3 V 691 – Steward Observatory, Kitt Peak-Spacewatch MPS 272164
2009 01 20.22894 08 42 17.52 +22 45 05.1 20.4 V 691 – Steward Observatory, Kitt Peak-Spacewatch MPS 272164
2009 01 20.24734 08 42 16.45 +22 45 09.7 20.1 V 691 – Steward Observatory, Kitt Peak-Spacewatch MPS 272164
2009 01 20.26552 08 42 15.43 +22 45 14.7 19.9 V 691 – Steward Observatory, Kitt Peak-Spacewatch MPS 272164
2010 04 08.28597 14 56 07.61 -15 27 46.8 21.0 V 691 – Steward Observatory, Kitt Peak-Spacewatch MPS 320574
2010 04 08.30368 14 56 06.93 -15 27 44.9 21.3 V 691 – Steward Observatory, Kitt Peak-Spacewatch MPS 320574
2010 04 08.32139 14 56 06.28 -15 27 43.2 20.7 V 691 – Steward Observatory, Kitt Peak-Spacewatch MPS 320574
2010 04 17.30058 14 49 48.10 -15 07 08.4   691 – Steward Observatory, Kitt Peak-Spacewatch MPS 323391
2010 04 17.31827 14 49 47.24 -15 07 05.4   691 – Steward Observatory, Kitt Peak-Spacewatch MPS 323391
2010 04 17.33597 14 49 46.37 -15 07 03.7   691 – Steward Observatory, Kitt Peak-Spacewatch MPS 323391
2010 05 09.26404 14 30 56.08 -14 01 47.4 20.1 V G96 – Mt. Lemmon Survey MPS 326296
2010 05 09.27248 14 30 55.65 -14 01 45.9 20.0 V G96 – Mt. Lemmon Survey MPS 326296
2010 05 09.28096 14 30 55.18 -14 01 44.5 20.1 V G96 – Mt. Lemmon Survey MPS 326296
2010 05 09.28943 14 30 54.75 -14 01 42.9 20.1 V G96 – Mt. Lemmon Survey MPS 326296
2010 05 10.390687 14 29 57.950 -13 58 21.51 20.13 i F51 – Pan-STARRS 1, Haleakala MPS 338898
2010 05 10.402222 14 29 57.326 -13 58 19.51 20.14 i F51 – Pan-STARRS 1, Haleakala MPS 338898
2010 05 11.385417 14 29 07.097 -13 55 22.71 20.61 r F51 – Pan-STARRS 1, Haleakala MPS 338898
2010 05 11.387886 14 29 06.971 -13 55 22.10 20.41 r F51 – Pan-STARRS 1, Haleakala MPS 338898
2010 05 11.397421 14 29 06.469 -13 55 20.51 20.59 r F51 – Pan-STARRS 1, Haleakala MPS 338898
2010 05 11.399884 14 29 06.343 -13 55 20.07 20.53 r F51 – Pan-STARRS 1, Haleakala MPS 338898
2011 07 27.47433 22 15 03.632 -15 47 55.10 20.8 w F51 – Pan-STARRS 1, Haleakala MPS 387738
2011 07 27.48904 22 15 03.086 -15 47 58.85 20.8 w F51 – Pan-STARRS 1, Haleakala MPS 387738
2011 07 27.50372 22 15 02.533 -15 48 02.63 20.8 w F51 – Pan-STARRS 1, Haleakala MPS 387738
2011 07 27.51842 22 15 01.985 -15 48 06.40 20.7 w F51 – Pan-STARRS 1, Haleakala MPS 387738
2011 08 30.42699 21 48 15.628 -18 16 27.08 20.7 w F51 – Pan-STARRS 1, Haleakala MPS 390386
2011 08 30.44173 21 48 14.879 -18 16 30.01 20.6 w F51 – Pan-STARRS 1, Haleakala MPS 390386
2011 08 30.45653 21 48 14.128 -18 16 33.13 20.7 w F51 – Pan-STARRS 1, Haleakala MPS 390386
2012 11 23.32900 04 44 53.43 +23 36 33.6 20.6 V 691 – Steward Observatory, Kitt Peak-Spacewatch MPS 444717
2012 11 23.34681 04 44 52.38 +23 36 33.2 20.4 V 691 – Steward Observatory, Kitt Peak-Spacewatch MPS 444717
2012 11 23.36456 04 44 51.31 +23 36 32.5 20.3 V 691 – Steward Observatory, Kitt Peak-Spacewatch MPS 444717
2012 11 25.31072 04 42 58.55 +23 35 19.5 20.2 V 691 – Steward Observatory, Kitt Peak-Spacewatch MPS 444717
2012 11 25.32859 04 42 57.45 +23 35 18.7 20.3 V 691 – Steward Observatory, Kitt Peak-Spacewatch MPS 444717
2012 11 25.34397 04 42 56.54 +23 35 18.1 20.5 V 691 – Steward Observatory, Kitt Peak-Spacewatch MPS 444717
2012 12 03.18060 04 35 09.20 +23 28 36.8 19.6 V G96 – Mt. Lemmon Survey MPS 445808
2012 12 03.18823 04 35 08.73 +23 28 36.5 19.5 V G96 – Mt. Lemmon Survey MPS 445808
2012 12 03.19588 04 35 08.37 +23 28 35.9 19.1 V G96 – Mt. Lemmon Survey MPS 445808
2012 12 03.20341 04 35 07.83 +23 28 35.5 19.1 V G96 – Mt. Lemmon Survey MPS 445808
2012 12 06.26472 04 32 04.48 +23 25 19.9 19.1 V 703 – Catalina Sky Survey MPS 445808
2012 12 06.27362 04 32 03.98 +23 25 19.2 18.6 V 703 – Catalina Sky Survey MPS 445808
2012 12 06.28262 04 32 03.44 +23 25 18.7 19.1 V 703 – Catalina Sky Survey MPS 445808
2012 12 06.29156 04 32 02.76 +23 25 17.4 20.0 V 703 – Catalina Sky Survey MPS 445808
2012 12 08.27998 04 30 05.22 +23 23 01.6 19.8 V G96 – Mt. Lemmon Survey MPS 447562
2012 12 08.28591 04 30 04.86 +23 23 01.1 19.8 V G96 – Mt. Lemmon Survey MPS 447562
2012 12 08.29262 04 30 04.46 +23 23 01.0 19.8 V G96 – Mt. Lemmon Survey MPS 447562
2012 12 08.29856 04 30 04.06 +23 23 00.2 19.8 V G96 – Mt. Lemmon Survey MPS 447562
2014 02 09.55811 11 36 25.798 +07 02 53.17 20.8 w F51 – Pan-STARRS 1, Haleakala MPS 501515
2014 02 09.57038 11 36 25.390 +07 02 56.34 20.9 w F51 – Pan-STARRS 1, Haleakala MPS 501515
2014 02 09.58262 11 36 24.998 +07 02 59.04 20.8 w F51 – Pan-STARRS 1, Haleakala MPS 501515
2014 02 09.59485 11 36 24.594 +07 03 01.85 20.8 w F51 – Pan-STARRS 1, Haleakala MPS 501515
2014 02 22.28755 11 28 17.68 +08 01 03.3   691 – Steward Observatory, Kitt Peak-Spacewatch MPS 503704
2014 02 22.30530 11 28 16.87 +08 01 09.0   691 – Steward Observatory, Kitt Peak-Spacewatch MPS 503704
2014 02 22.32304 11 28 16.04 +08 01 14.6   691 – Steward Observatory, Kitt Peak-Spacewatch MPS 503704
2014 02 28.40562 11 23 29.959 +08 32 07.44 20.4 w F51 – Pan-STARRS 1, Haleakala MPS 505159
